Theta_e
317 316 315 314 314 316 316 318 320 323 327 328 329 330 328 328 330 330 330 330 329 329 328 328 327 325 330 334 334 332 330 330 326 320 319 326 329 323 317 317 317 315 315 316 319 321 321 324 326 325 324 325 325 324 324 323 322 321 323 324 324 325 325 325 325 324 322 319 318 319 321 323 323 321 320 321 320 322 322 322 325 322 322 323 319 323 332 330
316 315 313 313 314 315 316 317 319 322 327 329 328 330 329 328 330 329 329 330 329 329 328 328 326 326 330 333 333 328 325 325 322 320 322 325 324 323 320 317 316 316 315 318 321 322 323 325 326 326 326 327 327 324 323 323 323 323 324 325 326 326 324 323 323 322 321 319 318 318 319 321 323 322 321 321 322 322 322 322 324 324 323 323 318 321 328 329
315 313 311 312 313 314 315 316 317 320 326 329 327 329 328 328 330 328 328 329 330 329 328 328 326 326 330 332 332 326 323 323 323 323 323 323 321 320 319 317 317 318 318 320 322 323 325 327 327 327 327 329 329 325 324 322 322 324 325 326 328 327 323 321 321 320 319 318 319 318 316 319 321 321 321 321 323 322 322 323 323 324 325 325 320 320 326 327
314 312 311 312 312 313 314 315 317 317 322 328 328 328 328 327 329 328 328 329 329 329 327 327 326 327 330 333 330 322 321 323 324 324 323 322 321 318 317 318 319 319 320 321 323 325 326 328 328 328 330 331 330 326 325 322 322 323 324 326 327 327 324 321 320 318 317 317 318 318 316 318 319 319 320 321 322 322 323 323 323 323 323 327 323 320 324 324
312 311 310 310 311 313 313 314 317 316 319 326 328 328 328 327 329 328 327 329 329 328 327 327 326 327 329 332 328 319 319 322 323 324 323 321 320 318 318 318 318 319 321 322 325 326 327 328 328 329 331 332 331 327 328 324 321 322 322 322 323 324 324 320 318 316 315 316 317 317 317 317 317 317 319 320 321 321 322 321 322 322 321 326 324 320 322 322
312 312 311 310 311 312 312 312 315 317 317 321 326 329 329 327 329 329 328 329 329 327 327 326 327 328 330 331 325 317 320 323 323 325 324 320 319 319 319 320 320 321 322 323 325 326 327 328 329 331 331 333 331 329 331 324 320 323 322 320 320 322 322 317 316 315 314 316 317 318 317 316 317 317 318 319 320 320 320 320 320 320 321 326 324 319 320 321
312 313 311 310 310 311 312 311 313 316 315 316 321 328 329 327 328 329 329 328 329 328 327 327 327 328 331 328 320 317 321 324 324 326 325 320 319 320 321 322 322 322 323 324 325 326 327 328 329 331 331 333 332 331 330 322 319 324 324 321 319 320 319 316 315 314 314 315 316 316 315 316 317 318 318 317 319 319 319 319 318 318 320 324 322 318 319 320
312 313 311 309 309 310 311 311 312 316 316 313 317 325 330 329 328 328 329 329 328 328 326 327 327 329 331 324 317 319 322 324 324 324 325 323 320 321 322 322 322 322 323 324 325 326 328 329 330 331 332 332 332 332 328 322 320 323 326 321 317 318 317 316 315 314 315 315 315 314 315 317 317 316 316 317 318 319 318 317 317 317 318 319 319 317 318 319
311 312 311 310 309 310 311 311 311 314 316 313 314 322 328 329 328 327 328 329 328 328 326 327 328 330 330 321 317 321 321 322 323 322 324 323 321 321 322 321 322 322 323 324 324 326 328 329 330 330 331 332 332 332 327 324 324 325 326 321 317 318 317 316 316 316 316 315 314 314 316 317 316 315 316 317 318 318 318 317 316 317 317 318 319 318 317 318
311 312 312 311 309 310 312 311 311 313 315 314 314 320 326 328 329 327 326 329 329 327 327 328 329 331 327 319 319 322 322 322 322 322 323 323 322 322 322 321 322 322 323 323 324 326 327 328 329 328 329 330 331 331 328 326 326 326 324 320 318 319 317 317 317 317 317 317 316 315 317 317 314 315 317 318 318 317 317 317 317 317 319 319 320 319 317 318
313 313 312 311 310 311 312 310 310 312 314 314 313 316 323 327 327 327 326 328 329 327 328 328 329 331 324 318 320 321 323 322 321 322 322 321 321 321 321 321 321 322 322 323 324 325 326 327 326 326 328 329 329 330 328 326 325 325 322 319 319 319 318 318 318 318 318 318 317 316 317 318 315 314 317 318 317 316 317 319 318 318 320 321 322 320 317 318
313 313 312 311 311 311 312 310 310 312 313 315 314 313 319 325 326 326 327 329 329 328 328 327 329 329 323 319 320 322 324 322 321 323 322 322 321 321 320 320 321 323 324 324 325 326 326 326 325 326 327 327 329 328 327 326 324 325 323 322 322 320 320 319 318 319 319 318 317 317 318 319 317 315 317 318 317 316 317 320 320 320 321 322 324 323 318 317
313 313 311 311 312 311 310 310 310 311 312 314 314 312 316 323 326 326 327 329 328 328 327 327 328 325 321 320 321 323 324 322 322 322 322 322 321 320 320 322 323 323 324 325 325 324 324 325 325 326 325 326 327 325 325 325 323 324 324 325 326 324 324 323 321 320 320 319 317 318 320 322 321 318 318 318 316 316 317 319 320 321 321 323 326 326 321 318
313 312 311 312 313 312 310 310 310 310 312 314 314 313 314 320 326 326 326 328 329 327 327 328 326 321 320 321 321 322 324 322 322 322 322 322 321 320 320 322 322 321 322 323 323 322 322 324 324 324 323 324 323 321 322 322 323 325 325 325 327 327 328 327 325 323 320 319 318 319 320 323 324 319 318 317 316 316 317 318 319 320 321 323 325 324 323 320
312 311 312 313 313 312 311 311 310 310 312 313 313 313 313 317 325 328 326 328 329 328 328 326 322 319 321 322 321 321 322 322 322 323 322 321 322 322 320 321 321 321 321 321 322 321 323 323 323 324 323 321 321 321 322 322 324 326 325 326 328 329 328 326 326 325 322 319 318 320 321 322 323 322 319 316 316 316 317 318 317 319 321 322 321 320 323 324
312 311 312 313 312 311 311 311 311 311 312 313 313 313 313 317 323 327 328 328 328 327 327 323 319 319 322 322 322 321 322 322 322 322 322 321 322 322 321 321 321 321 320 320 320 320 322 323 322 323 322 320 321 323 324 324 326 326 325 328 330 329 328 326 324 325 325 321 319 321 324 325 323 322 320 317 317 317 318 318 317 318 320 321 322 320 320 324
312 312 312 311 311 310 311 311 311 311 312 313 314 313 314 317 323 326 327 328 328 327 325 322 319 320 322 322 322 322 322 322 322 322 322 322 322 321 321 321 321 320 319 319 320 320 320 321 320 321 321 322 322 324 326 327 327 325 324 327 330 329 328 327 323 322 324 322 320 320 323 326 324 320 317 315 317 318 318 318 317 317 318 319 321 321 320 322
311 311 311 311 310 310 310 311 311 311 312 313 314 314 314 316 321 325 327 327 327 326 324 321 320 322 323 322 322 323 322 323 323 322 322 323 322 321 321 320 320 320 319 319 318 319 319 318 319 321 321 322 323 325 327 329 329 326 325 327 328 326 326 326 324 322 321 321 322 323 321 323 324 322 319 316 315 317 317 318 318 317 317 317 318 320 320 320
310 309 309 309 309 309 309 310 311 311 311 312 313 313 314 314 317 323 326 327 326 324 324 321 320 323 324 322 322 323 323 324 323 322 322 323 321 321 321 320 320 320 320 320 318 318 318 317 319 322 323 323 324 325 327 330 329 327 327 327 328 326 324 326 323 320 321 321 322 323 322 322 323 323 324 322 318 317 318 319 319 318 317 317 317 318 318 318
309 308 307 307 308 308 308 308 309 310 310 312 312 313 313 313 318 324 325 325 324 323 324 321 320 323 323 322 323 323 324 323 323 323 322 321 320 321 320 320 320 320 321 321 319 317 318 320 320 322 323 323 323 324 326 328 327 328 328 327 328 327 326 327 323 317 318 320 321 322 323 323 323 322 323 325 322 318 319 320 320 319 318 317 317 317 317 316
307 306 306 306 307 307 308 308 308 309 309 311 312 312 312 313 319 323 323 324 324 323 323 321 321 322 322 323 324 324 324 324 323 323 322 321 320 321 320 320 321 322 323 322 319 318 319 322 322 322 323 323 323 324 326 325 325 327 328 326 327 327 327 327 321 316 315 318 321 322 321 321 322 321 321 322 321 320 320 320 320 321 320 319 318 318 317 316
306 306 306 306 306 308 309 308 308 308 309 310 311 311 312 312 315 316 318 323 323 321 322 321 321 322 322 324 324 324 324 324 323 322 321 321 320 321 321 321 322 323 323 321 319 319 321 323 323 322 323 324 323 324 325 324 324 326 327 327 327 328 327 323 319 315 314 317 321 322 321 319 319 319 320 321 320 320 320 319 319 321 322 322 320 318 318 317
306 306 306 305 307 308 308 308 307 308 308 310 310 311 311 311 312 313 316 321 322 321 322 321 321 323 324 324 324 324 324 324 322 320 320 321 321 321 322 322 322 323 323 320 319 321 322 323 323 323 324 324 324 324 324 323 324 326 326 327 327 327 327 324 320 316 314 316 318 318 319 319 319 319 320 322 321 319 320 319 318 319 321 322 321 319 318 317
307 307 306 306 307 307 307 306 307 307 308 309 310 310 311 311 312 311 313 319 322 321 322 321 321 323 324 324 324 324 324 323 321 319 320 321 322 321 320 321 322 322 322 320 320 322 323 323 323 324 323 323 324 324 323 324 325 326 326 327 327 326 326 323 319 317 315 315 315 317 320 321 322 323 323 323 323 320 319 319 317 317 317 319 319 318 318 318
306 306 306 307 307 306 306 306 306 308 309 309 310 310 310 311 312 311 312 319 322 321 322 321 322 324 323 324 324 324 324 323 322 321 320 321 322 321 320 321 320 319 319 319 321 323 323 323 323 322 322 322 323 323 323 325 326 326 325 325 325 325 324 321 318 318 320 320 317 319 324 325 324 325 325 324 325 323 321 319 318 317 316 316 316 316 317 317
306 306 306 306 306 305 305 305 306 308 310 310 310 310 310 311 311 311 312 317 320 321 322 322 322 324 323 323 323 323 324 324 322 321 320 320 322 322 320 320 320 319 318 318 322 323 321 321 322 321 321 323 323 323 323 324 325 326 325 323 323 324 323 321 319 320 324 324 318 317 322 325 323 324 325 324 324 323 322 320 319 318 317 316 316 316 316 317
306 307 307 306 304 304 304 305 305 307 309 309 309 310 311 311 311 311 313 318 320 320 322 322 321 323 323 323 323 323 325 324 321 320 319 320 321 321 321 319 319 320 318 320 324 322 317 319 321 321 322 323 323 323 322 322 325 325 322 321 322 322 322 321 321 322 323 322 317 315 318 322 321 322 323 323 322 321 320 320 319 319 318 317 316 316 317 318
308 307 308 306 304 303 303 304 305 306 308 308 308 309 310 311 311 311 313 319 321 320 320 320 320 322 322 323 323 323 324 323 321 319 318 319 320 321 321 319 319 320 318 322 324 319 315 318 321 321 322 323 323 323 321 321 324 321 318 320 321 321 321 320 321 322 320 320 320 318 317 320 321 321 321 321 320 320 320 320 320 319 318 317 317 317 317 318
308 307 307 306 304 303 303 304 305 306 308 308 309 309 309 310 311 311 314 319 319 318 319 320 320 321 322 323 323 322 322 322 321 319 318 319 320 320 321 320 320 319 319 321 322 318 315 318 320 321 322 323 322 322 320 321 322 318 316 319 319 318 319 318 320 321 318 319 322 321 318 320 323 321 321 320 318 320 321 320 321 320 319 318 318 317 317 317
307 307 307 306 305 304 303 304 304 305 307 308 308 308 309 310 311 313 316 317 317 316 318 319 320 322 323 323 323 321 321 320 319 318 318 319 319 319 319 320 320 319 319 318 317 315 314 315 318 320 320 322 320 319 320 320 318 316 317 318 317 317 317 318 318 317 319 320 322 321 319 320 322 322 322 322 319 319 321 320 321 321 320 320 319 319 318 317
306 306 307 306 305 304 303 303 303 304 306 307 307 308 309 309 310 315 317 316 316 316 318 319 320 323 324 323 323 322 320 318 317 318 318 318 318 318 320 320 320 320 320 317 314 314 313 315 317 316 316 319 318 316 317 317 316 317 318 318 318 318 317 319 318 317 321 324 320 318 318 319 321 321 322 322 320 318 319 320 320 320 320 320 319 319 318 318
304 305 306 307 306 304 304 303 303 303 304 306 306 308 310 310 311 315 316 315 316 316 316 319 321 323 323 322 322 322 321 319 318 318 318 319 318 318 321 320 319 321 322 319 317 316 315 316 316 313 313 317 319 317 316 316 316 318 318 318 320 321 321 322 322 320 323 323 316 314 318 319 320 320 320 321 319 317 318 318 318 318 318 318 319 318 317 316
304 304 305 306 306 305 304 304 303 303 304 305 306 307 310 312 313 315 315 314 315 314 314 318 322 323 323 323 322 321 321 320 318 318 319 319 319 319 321 319 318 322 322 320 318 317 317 316 314 313 313 315 318 319 317 316 317 318 319 320 322 323 324 325 325 323 324 320 314 313 317 318 318 318 318 319 319 319 318 317 317 317 317 317 317 316 315 313
304 304 305 305 305 305 304 304 303 303 304 306 306 307 310 313 314 314 314 313 312 312 314 318 322 323 323 323 322 320 321 320 318 319 320 320 321 321 321 319 317 320 321 319 317 318 321 320 315 315 315 315 317 319 318 317 317 318 318 320 321 322 324 326 326 325 324 318 313 314 317 319 319 317 316 316 317 318 318 317 317 316 315 315 316 315 314 314
304 304 305 305 305 305 304 304 303 303 305 305 305 307 311 315 315 314 313 312 310 311 313 317 321 323 323 323 321 320 321 320 319 320 321 321 321 321 321 318 317 319 320 320 319 319 323 321 316 314 314 314 317 318 317 317 317 318 318 320 321 321 321 320 318 318 319 317 316 315 316 318 318 317 316 316 315 315 317 317 316 316 315 314 314 314 313 314
304 304 304 305 305 305 304 304 303 303 304 304 305 308 310 312 312 313 314 312 311 311 312 316 321 324 324 323 322 321 320 320 320 320 322 322 321 321 320 318 318 318 319 321 320 321 324 320 314 312 313 313 316 317 316 318 319 318 318 320 319 317 316 317 315 313 314 319 320 316 316 317 317 318 317 316 315 314 316 316 315 315 314 314 315 314 313 314
304 304 304 305 305 305 305 305 304 303 303 304 306 308 309 309 309 311 313 312 312 312 313 317 319 321 322 322 322 322 320 320 321 321 322 323 322 321 320 319 318 318 319 320 320 321 323 317 312 312 313 313 314 316 316 317 317 317 317 318 316 315 315 316 317 316 316 320 321 317 317 317 316 318 319 317 316 315 316 316 315 315 315 315 316 315 314 314
302 303 303 304 305 305 304 305 304 303 303 304 306 308 308 307 308 310 312 313 313 312 314 317 316 316 319 321 321 321 321 321 322 322 322 323 324 322 320 320 319 318 320 320 320 321 321 316 311 312 313 312 311 315 317 315 313 314 317 317 317 318 317 316 317 318 318 321 320 317 316 316 316 317 317 317 316 316 316 316 316 316 316 316 316 316 316 315
301 302 302 302 304 304 304 304 304 303 303 304 306 307 307 307 307 308 310 312 313 313 314 315 314 313 314 318 321 321 321 322 322 323 322 322 323 322 320 320 319 318 320 320 321 321 320 319 314 311 311 311 311 314 317 316 312 312 314 316 316 318 318 317 317 317 318 320 319 318 316 316 317 317 317 318 317 316 317 317 317 317 317 316 316 317 316 315
301 302 302 301 302 303 304 304 303 303 303 305 306 306 306 306 306 306 307 310 312 313 313 312 312 313 313 316 320 320 321 322 322 323 322 321 322 321 320 320 319 318 319 320 321 321 320 320 316 311 310 312 312 314 316 316 314 312 314 316 316 315 315 316 317 316 316 317 319 319 318 317 317 317 317 318 317 317 317 317 317 318 317 316 315 315 315 313
301 302 302 301 300 302 303 304 303 303 304 306 306 305 306 305 305 305 306 307 309 311 312 311 311 313 312 314 318 321 322 323 322 322 322 321 321 322 321 320 319 318 319 321 322 321 320 319 316 311 311 313 313 312 314 315 314 313 314 315 316 316 315 316 318 316 314 315 316 317 318 317 317 317 317 317 317 317 317 317 318 318 317 315 314 313 313 312
301 302 302 301 300 301 303 303 304 304 305 306 306 305 306 305 305 305 305 306 308 308 310 310 310 310 311 312 315 318 321 323 322 321 321 320 320 321 321 320 320 319 319 320 320 319 318 317 314 312 312 313 312 311 311 313 315 314 314 315 316 316 315 317 319 317 314 314 313 314 316 317 316 316 316 316 317 316 316 316 317 317 315 314 313 312 311 311
301 302 301 301 300 301 302 303 303 304 304 305 305 305 306 305 305 305 305 306 307 307 308 309 310 311 310 310 312 313 316 320 322 321 321 320 320 320 321 321 321 319 319 319 319 317 316 316 315 313 313 312 311 310 310 311 313 314 314 315 316 316 316 317 316 316 315 315 314 315 317 318 316 315 315 316 316 314 313 313 314 314 314 313 312 311 311 311
302 301 301 301 301 301 301 301 302 303 304 304 304 305 305 305 305 306 305 305 306 307 308 308 310 311 311 309 310 311 314 317 321 321 321 321 320 320 320 321 321 319 319 319 319 318 319 318 316 314 314 314 314 313 312 312 312 314 315 315 315 316 317 315 313 313 315 317 317 317 319 318 315 313 314 314 313 312 311 312 311 313 314 313 311 311 311 311
301 300 300 301 301 301 301 301 302 302 303 304 304 304 305 305 306 306 306 306 306 307 308 308 309 310 311 310 310 310 311 314 317 320 321 321 319 319 320 320 320 320 319 318 318 318 319 318 316 316 316 317 317 317 316 314 312 313 315 315 316 316 316 314 313 313 315 318 318 317 318 317 313 312 313 313 312 312 312 312 311 311 312 312 311 310 310 311
300 300 300 301 301 301 301 302 302 302 302 303 303 304 304 305 306 306 306 306 306 306 307 308 309 309 309 310 311 311 310 311 312 315 318 319 316 317 320 320 320 320 318 317 317 318 318 318 317 317 318 318 318 318 317 315 313 313 314 316 316 316 316 315 315 315 316 317 318 317 318 316 313 312 313 313 313 313 313 313 313 312 312 311 311 310 310 310
300 300 300 301 301 301 301 301 302 302 302 303 303 303 304 304 305 306 306 306 307 307 307 307 309 309 309 310 312 312 311 311 310 311 314 316 315 316 319 321 321 319 317 317 318 317 318 318 318 318 319 318 317 318 317 316 315 314 314 315 316 316 317 316 316 316 316 317 317 317 318 318 315 313 313 314 313 314 314 314 314 313 312 312 311 310 310 311
300 300 301 301 301 300 300 301 301 302 302 303 303 303 304 304 304 305 306 306 307 307 307 307 308 308 309 310 311 312 312 312 311 312 313 314 315 317 319 320 320 317 316 317 318 317 318 319 318 318 320 319 318 317 317 316 316 315 314 315 315 316 316 316 316 316 316 317 317 318 319 318 316 314 313 314 314 314 314 314 314 313 312 311 311 310 310 311
300 300 301 301 301 301 301 301 301 302 302 302 302 303 303 303 304 305 306 306 307 307 307 307 308 308 308 309 311 312 313 313 313 312 312 312 315 318 320 320 318 315 316 317 316 316 318 320 319 318 320 320 318 317 317 317 317 316 314 314 314 315 315 315 315 315 316 316 316 318 319 319 317 316 314 314 315 315 314 314 313 312 312 311 311 310 311 311
300 300 301 301 301 301 301 301 301 301 302 302 302 302 302 303 303 304 305 306 306 307 307 307 308 308 308 308 309 310 311 313 314 313 311 311 314 317 318 319 316 314 316 316 315 315 316 319 320 319 320 321 317 316 318 318 318 317 316 315 314 314 315 315 315 315 316 316 316 317 318 318 318 318 316 315 316 315 313 312 312 311 312 311 311 311 311 311
299 300 300 301 301 301 301 301 301 301 301 301 301 302 302 302 302 303 304 306 306 307 307 307 307 308 309 309 309 309 309 310 313 314 313 312 314 316 317 317 316 314 315 316 315 315 316 318 320 319 320 321 316 314 316 317 318 318 317 316 315 315 315 316 316 316 316 316 317 317 318 317 317 318 317 316 316 314 313 313 312 312 312 311 311 311 311 311
299 299 300 300 300 301 301 301 300 301 301 301 301 302 302 302 302 303 303 304 306 306 307 308 308 308 309 309 309 309 309 309 310 313 313 313 314 315 315 315 315 315 315 315 315 315 315 318 319 318 320 321 317 314 314 315 317 318 317 316 315 315 315 316 316 316 316 316 317 317 317 317 316 317 316 315 315 315 314 314 313 313 312 312 312 312 312 312
Wind_Speed
42 40 37 38 42 41 40 45 42 41 47 48 46 48 48 48 47 46 45 43 42 39 36 35 33 32 30 30 30 28 26 26 25 24 27 31 31 35 34 26 23 25 25 23 19 17 16 13 11 11 9 8 6 5 5 5 4 4 4 5 5 6 4 3 4 1 2 4 5 4 5 6 4 6 6 5 8 7 5 6 6 8 8 5 4 8 11 13
39 37 35 36 41 41 40 44 44 40 46 48 46 47 47 47 48 46 45 43 42 40 37 36 35 33 31 30 31 28 25 24 25 26 27 27 30 38 33 24 24 26 26 22 19 17 16 14 13 12 10 9 8 6 6 6 7 7 5 5 6 5 2 2 2 2 2 4 5 4 3 5 2 5 8 6 8 10 7 8 9 8 10 11 8 8 11 13
36 36 33 34 39 41 41 43 46 42 41 46 46 48 49 47 47 46 45 44 42 41 38 37 36 34 33 33 31 29 25 21 23 26 29 30 29 32 30 28 28 27 26 20 16 17 15 13 12 12 12 10 8 8 8 7 8 8 6 6 6 5 3 4 2 3 4 4 4 4 1 3 3 3 7 7 8 9 9 8 9 11 12 14 13 10 12 13
34 34 34 34 38 41 43 43 47 47 41 44 47 46 50 47 46 46 45 45 43 41 40 37 36 35 34 34 32 32 27 16 23 30 30 33 32 33 32 31 31 28 24 18 14 15 13 12 12 12 11 11 10 8 8 9 7 5 6 6 3 4 5 4 4 5 5 2 3 4 1 3 2 4 6 7 7 7 9 10 10 10 11 16 17 14 14 14
32 32 33 35 38 39 44 47 47 49 43 43 48 45 48 49 45 46 46 45 44 42 41 39 36 36 35 34 32 33 26 9 20 34 31 31 34 37 36 32 32 29 22 16 14 13 12 12 11 12 11 12 11 8 11 13 9 4 5 5 3 2 4 5 6 5 4 1 2 3 2 2 1 5 8 9 8 2 1 5 7 7 6 13 16 16 17 16
30 31 31 33 38 38 43 49 46 48 43 37 45 47 46 50 46 45 47 46 45 43 41 40 37 37 36 35 34 34 27 6 8 30 35 32 34 37 36 32 30 29 22 16 15 14 13 13 12 13 12 13 11 9 12 13 11 7 6 5 3 4 2 5 5 4 4 2 3 3 1 1 3 7 7 11 12 3 3 2 4 4 5 10 12 14 17 17
31 31 32 31 36 38 41 48 48 48 45 35 38 45 43 49 50 44 46 47 46 45 42 42 38 38 37 35 35 33 31 14 2 22 37 38 38 38 36 31 28 27 23 16 15 16 15 16 15 14 12 11 12 13 12 11 12 11 7 8 7 4 3 5 5 4 4 3 3 1 2 4 7 6 3 9 13 8 9 10 7 5 6 10 11 12 15 17
32 32 33 32 35 39 40 47 50 49 48 40 37 42 43 46 52 47 45 46 46 45 43 42 40 39 39 38 35 29 32 23 5 14 34 43 41 38 35 30 28 24 21 17 15 17 17 18 17 14 11 10 11 13 12 10 11 13 9 8 8 6 6 5 5 4 3 3 2 2 5 7 7 5 4 11 13 8 11 13 10 9 7 9 11 12 14 17
33 33 33 33 34 37 40 46 52 50 50 45 36 40 47 44 48 49 46 46 47 46 45 43 42 41 40 41 34 24 30 29 13 9 27 44 43 39 36 32 31 26 23 21 18 18 16 17 17 13 9 10 12 11 13 10 7 13 12 8 10 9 8 6 5 5 3 3 2 4 8 7 4 5 8 15 13 8 11 13 12 12 10 10 10 11 13 16
32 33 32 34 35 35 39 45 52 53 52 49 39 35 46 46 45 51 49 47 48 46 47 45 42 43 41 41 30 17 26 33 24 13 21 44 47 40 37 33 32 28 26 24 22 20 15 14 14 10 7 7 11 11 14 10 2 9 11 7 9 9 8 7 7 6 3 3 3 5 8 5 4 4 7 7 7 7 8 9 12 13 12 12 12 12 12 15
31 32 31 31 33 33 38 44 49 53 52 50 44 31 39 48 45 51 53 49 50 47 47 47 45 46 43 40 28 13 20 35 31 17 20 42 49 44 39 35 33 32 30 28 26 24 20 16 12 9 5 5 10 10 11 8 2 6 9 6 8 8 8 9 8 8 5 4 4 4 8 6 4 6 9 6 6 6 5 6 10 12 13 12 13 14 14 15
31 30 29 28 32 34 36 41 45 49 50 49 46 32 32 46 45 48 53 50 51 49 48 47 45 47 41 34 29 16 17 34 33 19 22 37 44 45 42 37 34 32 32 31 29 25 22 19 16 10 3 5 10 6 7 8 4 5 8 6 9 8 9 12 12 11 9 5 4 1 8 11 9 10 13 12 11 8 6 8 9 10 12 12 13 15 16 17
31 30 30 30 33 35 34 38 42 45 49 50 46 33 27 37 44 47 50 49 50 50 49 49 48 47 39 28 29 21 16 32 33 21 25 34 35 37 36 33 28 23 24 27 25 20 16 17 17 11 4 7 8 4 5 9 6 6 7 6 8 8 10 15 16 12 10 7 6 3 6 10 10 14 17 15 13 9 7 9 9 10 12 12 13 15 18 19
33 31 30 34 35 34 33 36 42 44 48 51 45 36 26 27 41 49 51 50 50 51 50 50 48 44 34 23 27 24 18 30 30 22 30 33 30 28 27 28 25 22 20 20 20 19 17 16 16 12 7 6 5 5 6 8 7 6 5 5 6 7 6 11 16 13 10 8 9 6 7 8 4 6 12 12 10 9 9 10 10 11 12 13 15 16 18 19
34 30 28 35 36 33 31 32 40 45 48 50 46 39 29 24 36 50 54 53 51 51 50 49 47 41 27 16 23 27 23 31 28 22 32 36 33 31 29 30 25 21 19 17 20 21 20 17 15 12 6 4 7 9 6 5 7 6 5 5 7 8 3 7 14 16 12 8 11 9 6 7 8 7 9 10 9 9 9 10 10 11 12 14 16 17 17 17
34 30 28 32 32 28 27 28 36 44 49 48 43 40 32 26 32 47 52 54 51 51 52 49 49 42 23 12 22 29 28 33 29 23 32 38 37 35 33 31 25 20 18 19 21 21 21 18 13 10 7 7 8 9 6 5 6 6 7 6 8 10 6 5 9 15 15 7 12 14 8 6 7 11 11 11 11 10 10 11 12 12 12 13 14 16 18 16
33 30 25 27 27 26 26 26 30 39 44 44 39 38 31 23 30 45 50 52 51 54 54 50 53 41 17 12 22 32 34 34 31 24 26 33 34 32 31 29 25 21 19 18 19 19 20 15 11 8 8 8 8 8 7 7 7 6 7 7 8 10 8 6 5 10 14 9 11 14 12 12 8 6 8 9 12 11 11 11 12 12 12 13 13 15 18 17
32 27 23 24 25 25 27 25 27 34 39 41 37 35 29 20 24 42 52 55 52 51 45 44 48 26 8 20 30 36 39 33 32 28 23 27 30 28 30 28 24 23 19 15 16 19 16 11 9 7 6 9 9 10 8 8 10 9 9 8 8 7 7 8 3 8 13 11 11 12 12 18 16 11 10 11 11 12 12 11 11 12 12 12 12 14 16 18
30 26 25 25 25 26 27 25 26 31 36 38 35 34 31 21 20 35 53 62 50 34 24 34 44 17 11 35 38 37 38 34 35 31 24 26 29 28 27 24 24 26 21 14 14 18 14 7 7 8 7 11 11 12 12 8 9 12 11 9 8 6 7 9 3 7 11 9 11 13 13 16 16 15 17 17 14 13 15 14 13 13 13 12 12 14 15 19
29 27 25 26 27 27 28 28 27 29 34 36 35 32 25 17 14 20 42 60 53 41 34 50 57 24 17 38 37 35 37 35 37 33 28 28 31 30 26 24 24 22 18 13 12 17 15 7 7 9 11 14 15 16 15 6 5 10 11 9 10 7 6 9 6 7 7 7 9 13 14 17 16 13 16 20 18 16 17 18 17 15 14 14 15 16 18 20
29 28 26 26 27 26 29 31 30 30 32 34 36 29 19 16 8 3 22 44 52 50 41 58 57 16 14 39 41 43 40 32 34 33 30 30 32 29 25 25 21 14 15 16 14 14 14 10 11 13 14 16 16 16 14 6 4 8 8 7 8 8 6 4 4 7 5 5 8 11 12 16 16 13 14 17 18 18 19 19 20 20 18 18 18 19 21 23
29 28 27 27 26 26 27 28 29 30 29 32 35 29 24 26 15 4 4 16 33 36 31 52 48 13 20 40 41 45 38 26 26 29 30 33 32 26 23 24 16 11 15 15 12 10 12 12 14 16 15 15 15 14 13 8 7 7 5 5 6 7 5 2 5 7 5 4 7 9 11 13 14 14 15 17 18 20 21 20 21 23 23 22 21 20 20 23
29 26 27 28 27 26 27 26 26 26 26 29 33 33 29 32 26 10 10 2 16 26 36 51 40 24 33 36 38 45 35 24 23 28 35 35 31 25 23 22 15 14 17 14 11 10 9 11 17 19 16 17 16 15 13 8 8 7 5 7 6 6 6 4 6 8 5 4 5 7 9 11 13 14 15 20 23 23 23 23 22 24 25 25 23 20 19 21
29 27 29 29 26 25 26 24 23 23 26 28 30 34 31 34 32 15 12 4 6 14 38 49 37 32 37 36 42 45 36 31 29 34 41 36 30 25 21 20 16 14 16 17 15 12 8 9 18 21 17 18 16 15 14 8 7 8 8 8 6 7 7 2 3 6 5 5 5 6 8 10 13 15 15 16 21 24 25 24 23 25 26 27 26 24 22 21
30 29 30 29 25 22 23 23 22 22 24 25 25 29 29 33 33 15 9 2 3 8 29 40 30 27 33 36 39 36 31 29 30 41 45 36 33 25 17 19 16 11 16 21 17 13 10 14 21 19 16 18 14 12 14 10 7 8 9 10 8 6 6 3 4 3 4 5 7 7 7 6 7 13 14 11 13 18 21 23 24 24 24 28 32 32 31 29
33 30 30 29 24 20 20 21 22 21 20 21 21 23 21 24 31 20 6 2 2 6 19 28 23 24 31 34 38 37 25 15 23 44 45 33 33 26 16 15 11 11 19 18 12 8 7 15 20 18 16 17 13 11 13 11 8 7 6 10 11 7 5 5 5 4 4 3 4 7 7 5 4 9 11 9 11 13 15 18 22 23 22 25 31 35 37 36
35 32 31 28 23 20 18 19 23 19 15 19 21 22 19 17 26 21 3 2 5 5 12 20 20 25 31 35 43 32 14 16 23 37 42 30 28 24 16 13 9 13 17 12 7 5 8 15 17 17 17 14 11 10 12 13 10 4 3 9 12 9 6 6 5 5 5 3 1 7 7 7 7 10 11 9 10 12 14 16 18 21 22 23 26 31 38 40
34 33 31 28 24 20 15 18 26 21 14 18 22 23 21 18 20 16 3 3 6 6 7 12 17 28 35 41 43 24 20 33 22 23 38 31 24 21 15 16 14 15 17 13 8 4 10 17 18 18 15 11 11 10 12 15 9 1 3 5 8 7 5 5 4 5 3 3 5 7 6 5 7 8 8 7 10 14 15 15 15 18 22 25 25 29 35 39
32 32 31 30 25 20 13 12 23 26 18 17 20 21 23 22 18 11 2 4 4 4 4 10 15 26 34 34 31 22 27 27 12 20 33 26 24 17 10 17 18 17 18 13 6 3 5 11 16 18 12 10 11 9 14 16 7 4 6 6 6 4 4 3 3 4 3 4 8 7 8 6 6 7 7 7 9 13 12 10 12 16 21 23 24 25 28 30
28 29 30 30 26 22 15 9 15 24 22 17 16 20 25 23 14 7 5 3 3 1 4 11 13 21 30 22 13 16 19 11 14 28 23 15 21 12 8 16 14 13 12 4 3 4 5 4 10 11 7 9 10 6 8 12 8 10 9 8 7 4 3 3 2 1 3 7 8 9 12 9 6 5 8 7 6 7 8 7 9 13 16 18 20 22 21 21
27 27 27 29 27 22 19 15 13 20 25 20 17 24 25 15 4 4 6 2 2 2 4 9 13 19 27 18 8 14 15 9 17 24 13 11 13 8 12 13 5 7 8 3 3 4 7 7 7 4 2 9 14 8 4 10 13 11 7 7 7 4 3 3 3 2 5 6 3 4 10 11 8 5 5 6 3 4 7 8 7 7 9 12 14 16 17 18
27 27 26 26 25 21 19 18 15 18 24 22 22 24 17 6 2 4 4 3 2 4 3 7 13 18 23 20 12 14 14 11 18 18 13 12 9 8 12 10 8 8 8 8 6 5 8 7 5 5 3 9 14 8 4 8 11 9 7 8 7 4 4 5 5 5 7 4 3 3 3 7 10 8 8 10 7 6 8 8 7 6 7 8 7 9 13 16
27 27 26 24 23 21 18 16 14 17 24 26 25 19 7 3 5 2 3 4 1 1 2 5 15 19 23 20 12 13 13 12 19 18 14 14 11 10 8 8 11 5 5 12 7 5 6 1 3 5 5 11 13 11 8 7 10 10 9 9 8 6 6 7 7 6 6 3 4 4 3 5 9 7 11 16 15 13 12 11 11 10 10 10 7 7 10 12
26 26 25 23 22 21 18 16 15 16 26 30 21 10 5 7 6 2 4 4 1 3 2 5 15 21 21 17 13 16 13 11 18 16 14 13 11 11 7 8 15 6 6 11 5 7 9 2 8 11 7 12 14 10 9 9 9 10 8 7 8 7 6 5 5 6 4 3 4 5 3 5 5 1 3 8 10 11 11 13 12 9 11 13 11 12 15 16
26 25 25 23 22 20 18 19 17 17 26 25 10 3 6 7 4 3 5 4 3 5 2 5 13 18 16 12 14 16 7 8 19 15 12 13 10 13 11 10 18 14 11 12 5 8 8 1 8 8 4 14 16 9 12 14 9 8 8 9 9 6 4 2 1 1 1 1 3 6 4 5 4 5 6 6 5 7 10 11 11 10 12 12 13 16 19 19
26 24 21 19 21 20 19 22 21 20 23 16 3 3 3 1 2 4 5 5 5 7 5 6 11 14 13 9 12 13 3 6 19 12 8 13 10 13 13 10 18 18 13 12 6 8 9 2 6 7 3 13 14 10 16 15 7 7 9 10 5 1 2 2 1 2 1 4 4 5 4 5 5 8 10 10 7 7 9 11 12 13 14 12 12 14 16 16
26 23 18 15 18 18 19 25 26 24 20 10 2 3 1 3 1 3 4 6 8 8 7 6 6 6 10 8 8 14 9 9 17 12 8 11 10 13 15 12 19 21 17 13 6 7 10 3 2 5 6 9 5 7 15 9 3 7 9 8 5 4 3 3 3 2 3 6 4 5 6 5 4 5 5 10 11 10 10 11 12 14 14 13 12 14 16 15
27 23 17 14 16 16 17 23 27 25 15 4 3 2 2 2 1 2 2 3 9 8 5 5 1 1 5 8 8 14 15 12 14 12 10 9 8 15 18 13 19 24 23 18 8 7 10 5 1 3 5 7 4 6 11 5 2 3 5 7 6 2 4 5 4 3 5 6 4 5 8 7 7 5 3 9 13 13 13 12 12 13 13 13 12 13 16 16
26 20 12 11 16 15 16 21 26 22 9 2 4 3 0 1 1 2 6 2 7 8 5 3 1 2 2 6 10 14 15 14 15 13 11 8 7 16 22 15 17 25 27 22 11 7 9 6 3 3 3 7 5 6 9 7 3 2 3 8 6 4 4 6 5 3 3 6 5 4 5 5 7 8 7 10 12 12 13 12 11 11 10 10 10 9 11 14
19 12 7 12 17 15 17 23 23 15 4 3 3 1 1 2 2 4 7 5 3 3 4 3 1 0 1 3 7 11 11 12 16 12 9 9 9 15 23 18 15 23 27 24 14 8 8 6 5 5 5 7 7 7 9 12 10 5 6 10 8 3 1 2 5 4 2 4 5 5 5 4 3 6 7 10 9 9 10 9 8 8 5 5 5 5 6 9
15 8 6 15 18 17 20 21 13 5 1 2 2 1 2 2 0 2 5 5 5 5 3 4 3 2 1 2 4 8 9 11 14 10 6 11 10 10 20 23 19 20 22 19 13 9 7 7 8 8 7 9 7 3 4 7 10 10 8 9 10 8 4 3 6 5 3 3 3 3 6 4 3 4 5 6 6 8 10 9 7 4 2 2 3 5 6 7
11 5 7 16 19 20 19 12 4 2 2 2 2 3 3 2 1 1 1 2 2 4 5 4 4 2 1 1 1 2 4 7 13 11 6 13 15 9 20 30 27 25 20 11 7 4 2 5 8 7 7 6 3 2 1 2 6 11 9 8 10 9 8 8 7 5 4 2 1 2 6 4 3 3 4 5 5 4 5 4 2 3 1 1 4 7 8 9
9 8 10 16 20 20 14 6 4 3 2 1 1 3 3 3 2 2 1 1 1 2 2 2 3 2 0 1 1 1 0 2 11 12 7 13 15 10 21 34 32 26 17 9 7 4 3 5 7 6 4 3 5 3 1 3 2 9 11 11 11 11 12 9 3 2 5 5 3 3 7 5 2 2 3 3 3 3 3 3 3 2 1 3 5 8 9 10
13 13 11 14 18 16 10 5 6 6 5 2 1 2 4 2 2 3 3 2 2 2 2 1 2 2 1 3 3 2 1 0 7 11 7 9 11 11 25 37 33 23 14 11 12 9 5 6 8 8 5 4 4 4 4 3 5 9 11 12 13 15 12 5 0 1 4 7 8 6 9 5 1 1 3 2 3 3 2 3 4 5 5 5 6 8 8 9
14 10 8 12 16 15 9 4 4 6 7 6 3 3 4 2 4 5 3 4 4 2 1 2 2 1 0 4 4 2 0 1 3 5 3 5 4 7 24 36 32 23 15 15 17 11 5 6 8 9 9 9 9 9 8 8 7 6 9 13 16 17 14 7 3 4 7 8 9 8 9 3 2 1 5 4 4 2 3 5 6 8 9 8 8 8 8 8
9 5 5 8 11 13 10 6 4 4 6 7 3 3 5 4 4 7 6 5 5 6 3 2 2 0 1 3 3 2 2 0 1 1 2 2 1 2 21 35 32 25 18 20 23 14 3 5 8 8 11 10 6 4 5 7 7 7 11 15 16 16 14 8 5 8 8 5 7 12 12 4 2 6 7 6 7 6 5 7 7 8 11 11 9 8 8 10
7 5 7 7 6 9 9 7 6 5 6 7 4 4 8 8 4 6 8 7 6 8 6 3 4 3 1 3 2 2 4 2 2 1 3 0 2 1 17 28 26 25 20 17 20 13 3 6 12 12 14 11 5 7 10 11 10 11 12 14 15 15 14 11 12 13 6 4 9 16 15 11 8 11 11 10 10 8 7 8 8 7 9 11 10 10 11 14
4 6 11 11 6 6 9 10 10 9 9 9 6 5 8 9 6 6 8 7 7 8 7 4 7 7 5 4 3 3 5 4 2 2 1 1 1 2 11 16 15 22 22 10 9 8 4 10 14 12 14 10 6 9 13 13 12 14 15 15 15 16 16 16 18 15 8 8 15 11 12 17 16 13 15 13 11 10 10 9 8 7 7 8 10 12 15 18
3 6 11 11 6 7 11 12 12 10 9 8 5 4 7 8 8 8 5 5 6 8 8 5 8 11 10 8 5 5 5 5 3 4 3 0 3 4 9 8 6 15 18 8 3 5 5 9 11 12 14 11 6 8 13 14 13 15 19 20 20 20 21 20 20 19 16 19 22 11 11 18 18 14 16 14 11 11 11 9 8 9 9 10 12 16 21 22
5 6 9 9 6 9 12 10 9 8 7 6 4 4 6 7 10 9 5 6 6 6 10 11 10 10 11 11 9 9 9 6 3 4 7 5 3 4 7 7 5 10 14 10 6 6 7 9 11 11 11 10 5 4 10 14 15 15 18 20 21 22 22 22 23 22 19 21 25 18 15 19 14 11 14 15 13 10 10 9 9 11 14 15 16 20 24 27
8 6 8 8 6 7 9 7 8 7 7 7 6 6 7 9 12 9 6 10 10 6 10 15 13 9 9 12 14 14 14 12 6 2 8 12 10 7 4 3 7 11 11 10 9 7 7 8 9 8 8 10 8 6 6 6 8 11 14 19 24 24 23 23 22 18 16 20 23 20 18 17 8 8 12 16 14 8 7 10 11 13 18 19 18 21 25 28
13 8 6 7 7 8 8 7 8 8 6 7 9 9 9 12 13 9 6 9 13 14 13 13 11 8 7 12 18 20 17 15 12 7 4 10 13 12 8 5 4 12 13 11 10 9 8 8 7 7 8 9 9 10 7 5 5 8 14 22 28 27 21 16 15 17 20 22 19 16 17 12 3 9 13 16 14 9 10 15 17 18 19 18 18 20 24 27
Wind_Direction
219 220 221 223 225 229 231 225 227 227 218 216 216 218 217 213 213 212 211 210 209 210 210 209 211 215 212 204 203 203 202 206 211 206 208 218 211 200 196 194 198 194 192 190 185 188 187 187 190 189 194 200 204 205 197 197 196 194 219 224 222 225 217 184 186 161 69 83 88 122 187 212 175 175 205 214 217 221 204 191 205 214 203 214 206 161 178 192
214 218 220 219 222 226 230 226 227 228 218 216 217 216 216 213 210 209 210 210 208 207 207 206 208 212 209 203 201 195 192 197 202 202 207 213 207 200 194 191 193 189 188 184 182 186 185 191 189 189 200 203 203 207 209 200 197 213 228 226 228 223 129 77 88 81 85 93 87 99 186 234 215 168 187 208 213 206 213 209 205 213 202 208 213 172 183 189
212 216 220 218 219 223 229 229 226 227 219 215 216 214 214 212 209 208 209 208 207 206 203 203 206 209 206 201 196 190 185 189 203 205 204 206 201 193 188 186 185 182 185 181 185 192 192 195 188 191 206 212 203 198 210 199 199 222 229 231 234 208 126 80 73 89 99 106 106 96 120 236 236 170 182 214 228 209 219 218 200 210 202 199 209 190 186 195
211 214 219 218 217 219 226 229 225 226 224 214 213 215 214 212 208 207 207 207 206 204 201 200 202 205 203 198 192 187 184 199 221 210 202 206 198 185 183 181 179 174 173 177 184 190 191 187 186 194 207 220 206 193 206 193 194 212 215 243 264 189 171 121 108 98 100 101 117 110 137 227 216 204 205 223 235 221 224 225 212 221 205 193 208 205 196 204
211 214 217 219 216 215 222 229 225 225 227 213 207 211 213 212 209 207 206 206 205 202 199 199 199 203 201 194 189 184 182 209 228 208 200 204 198 191 193 190 186 179 169 177 182 177 182 177 182 196 205 222 204 197 213 197 197 211 211 263 338 198 186 122 112 108 111 98 162 164 206 217 187 224 227 230 235 242 211 213 211 233 210 193 213 215 204 208
210 211 213 217 215 213 219 227 228 224 228 220 207 205 207 211 210 206 205 205 203 200 197 198 198 200 199 191 184 180 182 191 232 208 200 195 192 189 190 188 187 184 175 176 179 176 182 179 183 194 207 222 206 209 215 190 193 219 216 224 259 253 194 117 124 129 136 180 217 198 203 220 244 241 230 233 241 285 356 250 202 218 191 193 219 221 211 213
205 206 208 212 213 214 216 223 227 223 227 235 222 206 199 206 210 204 203 204 202 199 197 196 196 197 196 190 181 182 195 208 248 205 198 190 187 183 181 180 181 182 179 178 181 183 183 182 189 195 207 220 209 212 206 179 193 222 227 196 201 224 175 128 126 138 158 197 231 223 245 233 241 252 230 236 245 258 273 264 243 229 194 198 223 224 218 222
205 208 210 212 214 214 214 219 223 222 225 238 238 215 197 201 208 203 199 202 201 198 196 195 194 195 194 187 179 187 204 209 211 199 196 192 187 185 186 187 188 186 183 184 186 189 188 188 192 194 204 213 209 207 192 179 199 220 232 187 172 179 166 136 127 139 151 186 208 226 247 238 237 266 265 252 256 246 251 260 251 234 213 209 221 223 219 222
206 209 210 212 215 214 212 215 219 221 224 232 240 219 203 201 205 205 201 200 200 197 195 194 191 193 195 186 177 191 205 202 208 212 197 194 190 188 191 194 195 192 188 186 185 188 190 192 193 196 212 210 208 203 187 194 208 212 221 191 174 181 169 153 164 167 154 179 187 228 245 235 221 271 266 254 253 231 236 252 248 229 218 214 211 216 220 220
204 207 209 213 216 212 210 213 216 218 221 229 237 222 208 203 201 206 205 198 199 197 194 193 189 191 191 182 178 196 204 197 208 220 193 193 193 189 195 201 200 199 197 192 190 186 181 189 188 194 226 209 202 202 192 202 209 191 202 192 186 189 178 183 199 192 189 209 199 239 255 230 174 240 253 227 206 212 235 244 240 228 217 216 212 215 219 220
201 205 207 211 212 207 208 212 214 216 220 227 236 233 213 208 204 204 204 199 196 195 195 192 189 192 187 182 188 194 195 196 205 216 187 189 195 195 201 206 207 210 209 208 209 202 194 194 177 175 220 200 190 196 195 193 109 167 183 185 197 199 198 206 213 207 212 218 195 246 280 256 179 212 236 211 189 218 229 224 232 227 216 216 216 218 220 219
197 199 199 201 202 202 207 211 212 214 218 226 233 239 220 211 209 201 200 198 194 193 195 192 190 191 183 185 199 189 187 197 201 209 187 186 196 201 206 209 210 215 215 212 209 203 204 200 182 179 210 187 175 170 187 181 146 167 179 204 211 215 226 219 217 217 216 201 166 240 283 253 216 211 229 234 239 240 213 211 222 221 217 217 215 218 225 224
192 193 194 198 199 203 209 210 211 212 216 225 230 236 229 213 207 203 201 197 193 192 192 193 192 186 178 187 200 192 192 196 197 201 186 182 188 195 202 202 197 198 202 199 188 184 199 197 187 190 204 202 184 133 155 167 170 173 183 228 219 220 238 223 218 217 212 197 158 179 261 250 226 215 220 222 225 222 209 214 215 215 216 215 214 218 227 228
193 196 196 198 199 201 207 207 210 210 213 223 228 232 239 223 204 203 205 199 193 192 191 193 189 179 178 189 195 193 194 191 193 195 185 178 173 176 184 183 177 180 186 186 182 184 190 187 185 192 206 214 185 148 149 154 180 179 173 228 228 234 237 206 207 203 199 192 166 187 251 256 250 212 206 207 206 202 215 225 219 216 212 214 219 222 228 231
196 193 179 183 189 189 194 198 205 208 212 220 228 230 239 240 206 196 202 199 191 191 190 190 184 174 179 193 192 193 192 188 186 185 184 176 168 168 170 171 173 179 182 187 195 194 192 192 190 191 195 187 161 166 168 159 188 188 182 209 219 233 222 172 195 201 203 192 174 194 248 251 254 243 201 196 207 207 224 235 227 221 214 216 224 228 229 231
192 183 162 167 180 184 187 191 198 205 210 217 226 229 234 242 209 192 198 195 189 190 187 184 180 173 177 188 186 189 192 189 182 179 184 181 177 174 170 172 173 175 179 190 199 197 197 198 191 188 184 178 178 178 175 172 189 195 205 220 210 215 225 185 183 202 212 197 184 204 240 250 237 235 217 212 220 215 227 240 236 230 222 218 221 227 231 228
184 179 170 172 181 188 187 186 192 200 209 214 222 228 229 234 204 190 195 195 191 189 186 182 177 175 181 179 175 185 191 189 184 180 180 183 184 176 170 172 171 171 174 185 196 192 188 184 174 185 192 191 197 191 186 190 192 190 204 230 226 218 227 209 163 189 203 200 202 208 232 249 235 208 207 215 221 217 221 231 232 231 226 224 222 224 230 227
183 184 184 183 186 189 187 187 191 197 207 211 217 224 224 233 205 188 191 193 187 182 183 180 174 173 193 181 177 184 188 183 183 183 172 177 183 175 171 170 166 166 162 167 184 181 173 167 171 188 198 198 199 195 197 198 194 192 195 213 225 220 225 229 189 166 183 199 221 216 224 244 246 233 224 212 207 218 226 224 228 233 226 225 225 225 230 230
187 190 189 189 191 189 187 190 190 194 202 205 211 216 221 235 216 192 186 183 178 172 175 175 174 182 202 184 179 179 182 180 181 182 170 168 172 170 169 167 163 164 161 161 177 176 162 149 185 199 195 197 198 199 206 208 207 205 198 201 213 213 221 231 198 146 180 203 222 227 232 244 247 242 239 228 213 222 238 239 235 233 228 227 230 230 232 235
187 190 193 196 198 197 195 194 193 193 196 200 204 208 217 225 213 201 185 176 175 176 173 174 179 186 177 170 167 169 176 182 183 179 174 167 164 165 166 164 165 170 174 169 169 174 166 161 203 202 191 193 196 202 209 219 237 218 203 203 217 223 228 226 191 141 178 219 226 232 240 249 250 245 243 239 232 229 235 241 240 234 229 231 233 233 236 243
184 189 193 194 193 195 196 194 195 195 196 199 202 203 210 210 206 222 184 175 176 181 177 174 177 177 158 163 166 170 168 174 181 176 175 170 161 162 165 167 168 180 186 166 151 161 174 195 206 197 192 193 197 206 210 211 223 217 205 203 217 227 239 232 172 145 156 224 244 245 249 255 256 254 249 243 241 235 229 233 237 236 235 236 234 232 238 246
181 185 187 184 180 181 183 184 188 189 191 196 201 207 214 217 222 331 237 178 171 180 177 173 174 159 159 165 168 170 160 158 168 167 171 170 167 166 167 173 175 180 179 162 146 158 189 211 198 191 194 193 200 209 209 210 212 214 210 214 227 224 224 193 153 157 164 214 251 259 260 264 264 261 254 244 241 240 235 233 233 235 238 237 233 228 230 240
178 177 177 175 173 178 178 178 181 182 185 190 199 210 217 222 225 257 297 228 151 170 172 173 173 156 156 160 165 169 160 152 156 164 171 171 174 173 166 175 180 177 178 170 165 169 192 208 190 187 194 194 201 204 202 209 214 219 217 219 231 215 216 226 181 169 179 223 272 286 275 274 274 266 257 245 241 242 240 237 233 232 235 236 233 229 225 232
172 167 169 169 170 178 179 175 175 179 186 188 197 209 219 226 223 243 286 252 118 159 171 172 169 159 158 161 169 170 160 158 164 170 174 172 172 170 165 171 171 177 183 178 180 182 185 192 185 188 196 197 196 193 195 204 211 218 222 224 231 213 218 234 144 158 197 233 249 275 280 272 263 257 255 245 235 236 236 234 232 227 231 236 235 233 229 228
168 164 167 169 168 174 174 168 166 172 180 184 194 205 219 226 220 239 300 257 99 142 167 170 167 162 160 161 169 165 152 160 171 170 172 174 171 162 162 170 165 172 179 177 185 194 192 182 180 183 190 194 194 194 197 200 210 217 219 224 231 228 220 181 139 163 248 248 203 213 262 266 247 245 248 246 233 232 230 229 230 224 225 234 237 237 237 236
171 167 168 169 167 168 166 163 166 167 166 171 183 193 206 219 219 230 296 26 186 159 160 167 168 168 165 162 161 157 154 160 168 170 169 174 175 163 157 171 175 180 173 173 186 198 191 180 178 179 184 191 197 204 197 191 213 227 206 205 220 242 240 199 183 201 257 286 164 191 248 272 273 261 255 247 238 234 229 227 230 227 225 230 235 238 240 241
174 171 168 166 165 170 167 163 167 163 157 165 176 183 184 197 212 218 238 18 215 170 153 162 168 171 168 161 157 156 158 146 153 171 171 171 176 170 165 170 178 182 169 162 184 182 161 172 179 182 185 190 197 201 188 186 207 227 138 177 205 224 223 209 210 223 256 321 183 196 235 270 273 269 267 250 240 240 234 230 228 227 228 227 229 235 240 242
174 171 165 162 167 178 179 171 168 162 158 166 173 182 180 178 189 189 181 253 183 135 146 157 162 168 164 161 161 148 134 144 146 174 174 171 171 173 182 181 172 172 169 171 183 156 154 173 181 181 183 190 197 193 174 181 202 169 93 159 189 205 205 207 221 235 270 316 251 204 197 253 259 255 259 233 234 246 240 235 229 223 225 225 225 231 237 242
170 169 167 166 170 179 181 175 173 168 160 153 158 173 177 169 162 154 205 257 154 119 152 151 158 163 156 160 165 142 135 147 141 159 171 171 167 171 187 181 174 164 169 184 189 134 150 177 178 175 186 195 189 182 174 185 196 120 120 120 129 159 173 188 229 241 255 262 255 217 187 233 269 247 234 214 226 246 246 241 234 226 225 227 228 231 234 237
167 169 170 170 172 175 168 154 170 175 170 155 142 152 162 160 146 145 219 226 127 127 150 152 159 154 150 157 169 150 141 135 129 147 160 161 161 163 132 153 168 159 159 156 103 122 107 146 175 175 201 188 154 126 166 175 149 126 128 117 118 133 141 173 239 266 264 252 245 221 203 221 272 242 216 219 214 227 244 248 237 232 231 232 234 235 232 227
168 169 168 170 175 175 164 155 163 176 177 168 147 144 148 147 137 182 196 135 87 198 158 152 156 151 155 159 158 156 145 120 139 146 146 145 154 154 133 139 149 148 151 102 96 139 128 149 179 155 159 150 126 92 101 138 141 143 145 136 133 132 142 185 200 187 246 252 229 211 204 212 239 228 208 238 216 193 240 246 227 220 227 237 239 233 227 225
168 169 167 170 177 177 170 167 167 173 178 172 157 153 147 137 219 205 164 120 132 195 200 165 161 158 161 162 161 158 142 136 156 153 152 159 159 166 167 169 160 151 170 174 165 158 149 165 166 119 161 167 142 131 130 143 160 170 163 159 160 161 177 210 207 206 237 232 106 93 165 211 242 249 245 258 254 223 232 233 225 229 241 253 242 221 227 232
165 166 166 169 174 177 175 173 170 170 174 170 161 160 161 176 191 178 141 158 132 155 248 191 168 161 161 163 163 154 139 148 164 160 159 160 157 174 189 179 163 148 168 165 148 141 151 170 176 150 189 196 177 164 165 170 178 181 173 174 185 179 187 212 208 214 231 198 125 116 128 243 262 261 244 250 254 242 226 223 236 250 255 260 248 226 238 239
160 162 164 168 173 177 177 176 178 167 163 163 159 160 183 182 171 95 136 168 91 129 206 206 170 164 167 169 161 154 147 155 164 161 159 155 158 176 179 180 180 161 131 153 152 163 162 197 195 179 170 185 193 190 167 155 169 186 187 188 200 198 204 216 208 213 207 133 132 149 165 234 240 5 240 250 265 256 235 231 243 256 257 261 257 247 251 255
156 160 162 164 170 174 175 176 180 172 162 159 155 173 184 177 156 131 156 154 128 147 204 237 180 166 171 169 162 164 158 159 163 161 166 164 166 176 169 182 189 176 150 158 169 177 177 197 172 164 151 171 180 186 157 147 165 191 189 200 216 227 235 236 232 202 137 84 184 188 229 250 253 309 283 255 264 249 237 239 245 253 256 259 259 257 260 262
148 154 156 159 165 168 174 177 180 181 172 162 158 206 192 170 137 150 152 143 147 148 155 223 200 175 171 165 166 173 160 151 162 159 171 169 169 180 174 177 187 184 174 163 158 180 185 168 133 119 129 175 177 182 169 162 168 178 190 203 199 356 308 207 165 86 68 272 225 182 239 268 275 281 250 225 229 223 222 231 235 243 251 249 248 256 259 256
142 144 141 145 158 164 174 179 180 179 174 167 197 196 87 6 118 122 119 140 146 143 153 195 211 181 172 165 166 170 150 143 162 161 168 174 176 179 175 179 187 190 187 172 161 183 172 119 108 137 148 172 172 173 180 184 156 164 189 184 127 42 328 238 230 171 187 248 237 183 229 251 252 262 208 196 216 223 219 224 225 232 241 240 238 249 257 256
141 136 126 131 150 161 169 176 177 172 163 165 231 221 48 30 188 88 48 132 139 140 166 196 263 343 176 170 165 168 158 153 167 165 163 177 183 177 175 177 186 193 193 179 168 181 165 114 33 201 153 149 138 160 182 217 296 200 190 159 148 220 218 198 226 218 199 231 249 211 221 236 233 232 181 186 207 224 230 227 224 230 236 236 235 244 255 260
142 130 117 135 151 155 158 166 172 166 152 184 219 227 61 67 264 329 354 24 140 153 177 187 328 338 208 181 164 169 171 164 164 164 169 182 179 178 181 175 181 193 193 187 179 173 170 145 134 202 149 132 152 185 188 191 201 271 220 177 193 248 215 198 211 226 220 223 245 230 207 228 225 211 209 208 207 217 225 222 226 236 237 233 233 236 246 256
143 123 115 153 154 151 154 158 164 162 155 211 200 204 94 86 294 308 339 1 92 135 173 178 227 180 243 239 175 171 177 164 165 170 174 176 163 172 183 179 176 186 190 194 192 162 168 179 150 148 145 155 180 204 199 190 178 181 196 190 193 199 221 246 217 222 258 230 237 242 231 238 196 179 207 222 220 209 199 200 215 223 220 218 229 233 240 250
142 123 137 158 157 156 154 154 161 166 180 203 165 109 123 110 128 297 331 353 35 43 75 132 161 147 146 226 191 181 177 162 170 175 159 172 172 172 186 185 173 173 183 194 196 177 177 178 147 142 168 184 190 189 194 199 190 187 194 193 192 190 185 210 209 205 227 241 242 259 264 262 145 153 198 217 224 204 189 198 205 182 156 190 244 263 260 251
147 130 146 157 160 160 156 155 173 187 201 217 175 151 147 118 119 168 347 355 36 39 45 86 137 126 71 198 229 213 187 169 175 177 166 184 191 185 185 183 172 167 175 180 177 173 128 126 129 140 170 171 132 106 96 294 212 197 204 206 197 194 195 205 212 189 177 214 318 319 284 273 130 149 207 210 212 189 173 185 156 106 104 251 276 278 268 257
135 106 130 153 160 159 160 174 191 187 222 269 85 126 135 117 122 138 116 91 111 102 61 62 148 154 332 222 225 220 159 176 184 183 174 185 195 185 174 178 173 169 175 168 152 148 99 118 125 115 123 110 87 109 108 359 241 200 209 214 204 202 205 211 231 161 175 193 190 229 260 257 138 147 225 205 155 124 112 113 124 134 225 252 268 269 258 251
114 100 123 154 162 165 175 189 186 200 210 183 104 155 157 160 165 149 139 168 182 152 125 160 196 200 186 157 166 185 164 326 199 195 183 180 190 169 168 177 178 174 181 176 168 175 167 150 142 132 145 154 146 170 191 206 219 213 208 206 206 207 201 192 70 168 209 202 183 210 248 246 129 132 239 208 136 137 159 164 188 208 214 229 246 249 244 241
116 98 124 155 165 182 207 224 193 202 200 192 217 201 173 186 191 179 184 191 196 208 202 210 216 289 75 152 154 173 257 333 207 201 187 168 173 161 170 178 182 182 177 160 157 162 163 165 161 155 166 177 182 189 189 187 195 205 199 196 204 205 189 170 171 205 226 207 180 208 243 236 98 249 242 208 184 208 206 192 207 221 225 232 233 234 232 222
135 112 131 150 170 194 221 246 223 194 192 190 211 226 211 210 185 180 195 207 206 207 224 250 209 106 356 190 175 155 173 253 151 -0 349 146 81 220 177 177 184 184 156 136 151 157 142 186 187 181 183 185 184 162 122 127 151 177 191 192 197 199 187 170 187 216 221 196 190 222 236 237 186 211 221 209 202 214 211 202 207 221 236 241 230 221 212 196
153 154 156 152 167 196 213 223 209 188 184 182 176 198 210 215 203 176 186 200 204 198 207 236 205 194 206 200 222 199 163 133 103 38 332 154 19 294 176 176 185 177 146 135 162 163 119 200 198 201 199 187 156 136 125 129 159 177 183 187 187 189 187 186 209 219 192 149 231 230 224 236 227 195 199 208 201 202 209 207 204 209 231 241 229 210 193 184
160 164 170 167 157 181 197 200 199 192 185 185 184 183 200 214 214 188 184 193 198 192 194 209 207 215 220 199 229 231 161 136 148 156 19 315 269 128 162 175 183 166 152 155 184 165 162 203 199 203 207 191 146 149 149 148 167 173 173 182 182 182 192 202 219 223 183 198 241 224 189 222 230 200 197 201 192 196 200 198 203 206 217 230 223 203 190 187
148 148 172 181 174 178 189 194 194 192 187 187 190 193 202 213 216 212 197 184 198 198 198 216 208 205 214 212 223 236 188 162 175 165 120 206 222 172 154 166 179 165 160 162 193 183 195 201 190 194 209 210 180 168 170 165 167 171 177 184 183 187 199 208 221 225 210 221 241 229 196 226 229 205 202 200 187 186 179 178 200 212 214 216 210 200 193 194
160 157 172 189 202 187 186 186 182 188 195 193 208 223 216 223 226 226 208 189 201 193 196 222 224 199 202 210 215 233 226 209 201 177 164 172 223 208 173 166 166 173 175 172 173 197 210 198 180 180 206 216 201 200 199 183 176 179 183 185 183 187 200 210 221 223 214 226 240 239 241 250 239 205 205 204 191 172 160 174 201 213 215 211 206 203 200 201
173 173 168 179 198 186 180 179 174 185 192 187 203 213 213 228 230 228 226 218 220 206 195 213 224 209 201 208 214 227 228 224 239 201 157 174 200 219 215 185 162 164 175 182 181 191 206 195 171 167 203 214 193 189 207 187 171 180 186 185 184 190 200 208 216 216 204 220 235 235 241 252 231 168 190 202 194 174 168 186 198 214 218 212 209 211 211 211
186 180 164 178 197 187 182 182 181 194 197 191 203 203 203 221 222 217 234 232 227 231 223 212 214 213 208 216 222 226 223 220 235 263 234 209 220 233 262 298 197 175 175 178 183 189 192 189 171 165 200 214 182 161 151 116 136 192 202 194 190 194 200 206 217 216 207 213 223 223 230 242 175 151 188 199 189 185 202 205 205 212 215 215 219 219 218 220